TimeCDT,TemperatureF,Dew PointF,Humidity,Sea Level PressureIn,VisibilityMPH,Wind Direction,Wind SpeedMPH,Gust SpeedMPH,PrecipitationIn,Events,Conditions,WindDirDegrees,DateUTC
12:15 AM,73.4,64.4,73,30.01,10.0,SSE,6.9,-,N/A,,Clear,150,2013-09-19 05:15:00
12:35 AM,75.2,64.4,69,30.01,10.0,SSE,9.2,-,N/A,,Partly Cloudy,160,2013-09-19 05:35:00
12:55 AM,73.4,64.4,73,30.02,10.0,Calm,Calm,-,N/A,,Scattered Clouds,0,2013-09-19 05:55:00
1:15 AM,73.4,64.4,73,30.02,10.0,South,3.5,-,N/A,,Scattered Clouds,170,2013-09-19 06:15:00
1:35 AM,73.4,64.4,73,30.02,10.0,Calm,Calm,-,N/A,,Scattered Clouds,0,2013-09-19 06:35:00
1:55 AM,73.4,64.4,73,30.02,10.0,Calm,Calm,-,N/A,,Partly Cloudy,0,2013-09-19 06:55:00
2:15 AM,73.4,64.4,73,30.02,10.0,SSE,4.6,-,N/A,,Partly Cloudy,160,2013-09-19 07:15:00
2:35 AM,73.4,64.4,73,30.01,10.0,SSE,5.8,-,N/A,,Clear,160,2013-09-19 07:35:00
2:55 AM,73.4,64.4,73,30.01,10.0,Calm,Calm,-,N/A,,Clear,0,2013-09-19 07:55:00
3:15 AM,73.4,64.4,73,30.01,10.0,Calm,Calm,-,N/A,,Clear,0,2013-09-19 08:15:00
3:35 AM,71.6,64.4,78,30.01,10.0,Calm,Calm,-,N/A,,Partly Cloudy,0,2013-09-19 08:35:00
3:55 AM,71.6,64.4,78,30.01,10.0,SSE,3.5,-,N/A,,Partly Cloudy,160,2013-09-19 08:55:00
4:15 AM,71.6,64.4,78,30.01,10.0,SSE,6.9,-,N/A,,Scattered Clouds,160,2013-09-19 09:15:00
4:35 AM,71.6,64.4,78,30.01,10.0,Calm,Calm,-,N/A,,Scattered Clouds,0,2013-09-19 09:35:00
4:55 AM,71.6,64.4,78,30.01,10.0,Calm,Calm,-,N/A,,Partly Cloudy,0,2013-09-19 09:55:00
5:15 AM,71.6,64.4,78,30.01,10.0,SSE,4.6,-,N/A,,Clear,160,2013-09-19 10:15:00
5:35 AM,73.4,64.4,73,30.01,10.0,SSE,6.9,-,N/A,,Clear,150,2013-09-19 10:35:00
5:55 AM,73.4,64.4,73,30.01,10.0,SSE,4.6,-,N/A,,Partly Cloudy,160,2013-09-19 10:55:00
6:15 AM,73.4,64.4,73,30.02,10.0,SSE,3.5,-,N/A,,Partly Cloudy,150,2013-09-19 11:15:00
6:35 AM,71.6,64.4,78,30.02,10.0,SSE,6.9,-,N/A,,Partly Cloudy,150,2013-09-19 11:35:00
6:45 AM,71.6,64.4,78,30.02,7.0,South,8.1,-,N/A,,Mostly Cloudy,170,2013-09-19 11:45:00
7:45 AM,71.6,64.4,78,30.03,8.0,South,9.2,-,N/A,,Mostly Cloudy,170,2013-09-19 12:45:00
8:46 AM,73.4,66.2,78,30.03,8.0,South,8.1,-,N/A,,Scattered Clouds,180,2013-09-19 13:46:00
9:45 AM,78.8,68.0,69,30.04,8.0,SSW,8.1,-,N/A,,Scattered Clouds,200,2013-09-19 14:45:00
10:50 AM,82.4,68.0,62,30.05,8.0,SSW,6.9,-,N/A,,Scattered Clouds,210,2013-09-19 15:50:00
11:48 AM,82.4,68.0,62,30.05,8.0,SW,5.8,-,N/A,,Scattered Clouds,220,2013-09-19 16:48:00
12:50 PM,86.0,68.0,55,30.04,10.0,SW,4.6,-,N/A,,Scattered Clouds,220,2013-09-19 17:50:00
1:50 PM,86.0,66.2,51,30.01,10.0,SSW,13.8,-,N/A,,Scattered Clouds,210,2013-09-19 18:50:00
2:50 PM,86.0,66.2,51,29.97,10.0,SSW,12.7,-,N/A,,Scattered Clouds,210,2013-09-19 19:50:00
3:55 PM,82.4,69.8,66,29.96,10.0,SSW,9.2,-,N/A,,Mostly Cloudy,210,2013-09-19 20:55:00
4:45 PM,82.4,71.6,70,29.97,10.0,SSW,6.9,-,N/A,,Mostly Cloudy,210,2013-09-19 21:45:00
5:55 PM,82.4,69.8,66,29.95,10.0,SE,9.2,-,N/A,,Mostly Cloudy,140,2013-09-19 22:55:00
6:55 PM,77.0,69.8,78,29.94,10.0,SE,10.4,-,N/A,,Mostly Cloudy,130,2013-09-19 23:55:00
7:50 PM,75.2,68.0,78,29.94,10.0,SSE,8.1,-,N/A,,Scattered Clouds,160,2013-09-20 00:50:00
8:45 PM,75.2,66.2,73,29.97,10.0,South,4.6,-,N/A,,Mostly Cloudy,170,2013-09-20 01:45:00
9:15 PM,75.2,66.2,73,29.99,10.0,Calm,Calm,-,N/A,,Clear,0,2013-09-20 02:15:00
9:35 PM,75.2,68.0,78,29.99,10.0,South,4.6,-,N/A,,Clear,170,2013-09-20 02:35:00
9:55 PM,75.2,68.0,78,29.98,10.0,Calm,Calm,-,N/A,,Clear,0,2013-09-20 02:55:00
10:15 PM,75.2,68.0,78,29.98,10.0,Calm,Calm,-,N/A,,Clear,0,2013-09-20 03:15:00
10:35 PM,75.2,68.0,78,29.97,10.0,SSE,4.6,-,N/A,,Clear,160,2013-09-20 03:35:00
10:55 PM,75.2,68.0,78,29.97,10.0,South,8.1,-,N/A,,Partly Cloudy,170,2013-09-20 03:55:00
11:15 PM,75.2,68.0,78,29.96,10.0,SSE,4.6,-,N/A,,Clear,160,2013-09-20 04:15:00
11:35 PM,75.2,68.0,78,29.96,10.0,Calm,Calm,-,N/A,,Clear,0,2013-09-20 04:35:00
11:55 PM,73.4,68.0,83,29.96,10.0,SSE,4.6,-,N/A,,Clear,160,2013-09-20 04:55:00